Total_Precipitation_Accumulation
-0.10 -0.11 -0.11 -0.10 -0.04 -0.04 -0.02 -0.01 -0.01 -0.01 -0.02 -0.02 0.02 0.03 0.03 0.07 0.09 0.08 0.08 0.08 0.08 0.09 0.09 0.14 0.11 0.07 0.07 0.06 0.14 0.14 0.14 0.11 0.04 0.03 0.03 0.01 0.00 -0.00 -0.00 -0.00 -0.01 -0.02 -0.02 -0.04 -0.03 -0.03 -0.02 -0.02 -0.01 -0.01 0.03 0.00 0.00 -0.03 -0.03 -0.06 -0.08 -0.11 -0.11 -0.15 -0.34 -0.39 -0.39 -0.43 -0.42 -0.42 -0.42 -0.60 -0.75
-0.12 -0.12 -0.12 -0.11 -0.07 -0.07 -0.07 -0.07 -0.07 -0.07 -0.07 -0.06 -0.03 0.01 0.01 0.05 0.11 0.13 0.13 0.16 0.15 0.08 0.08 0.07 0.06 0.05 0.05 0.05 0.07 0.07 0.06 0.05 0.03 0.02 0.02 0.00 0.00 0.00 0.00 0.00 -0.01 -0.02 -0.02 -0.03 -0.02 -0.02 -0.01 -0.02 -0.01 -0.01 -0.01 -0.01 0.00 0.00 0.00 -0.05 -0.07 -0.11 -0.11 -0.19 -0.35 -0.45 -0.45 -0.48 -0.49 -0.49 -0.52 -0.55 -0.79
-0.15 -0.15 -0.15 -0.12 -0.11 -0.11 -0.10 -0.10 -0.08 -0.08 -0.07 -0.06 -0.04 -0.01 -0.01 0.02 0.11 0.14 0.14 0.12 0.06 -0.00 -0.00 0.07 0.09 0.09 0.09 0.09 0.10 0.10 0.10 0.07 0.05 0.04 0.04 0.02 0.02 0.03 0.03 0.02 0.01 0.01 0.01 0.00 0.00 0.00 0.04 -0.00 -0.03 -0.03 -0.02 -0.01 0.01 -0.00 -0.00 -0.01 -0.03 -0.13 -0.13 -0.24 -0.37 -0.46 -0.46 -0.47 -0.56 -0.56 -0.61 -0.63 -0.78
-0.21 -0.21 -0.21 -0.15 -0.13 -0.13 -0.12 -0.11 -0.10 -0.10 -0.07 -0.06 -0.04 -0.01 -0.01 0.03 0.06 0.04 0.04 0.01 -0.01 -0.04 -0.04 0.10 0.15 0.14 0.14 0.16 0.21 0.21 0.17 0.13 0.09 0.08 0.08 0.05 0.03 0.03 0.03 0.02 0.02 0.02 0.02 0.01 0.02 0.02 0.00 -0.04 -0.03 -0.03 -0.01 -0.00 0.02 0.03 0.03 0.03 -0.04 -0.18 -0.18 -0.35 -0.37 -0.36 -0.36 -0.40 -0.49 -0.49 -0.57 -0.60 -0.58
-0.26 -0.24 -0.24 -0.17 -0.14 -0.14 -0.12 -0.11 -0.10 -0.10 -0.05 -0.04 -0.01 0.02 0.02 0.02 0.01 0.01 0.01 0.00 -0.01 0.02 0.02 0.19 0.24 0.19 0.19 0.22 0.25 0.25 0.21 0.17 0.12 0.10 0.10 0.08 0.03 0.02 0.02 0.02 0.02 0.02 0.02 -0.03 -0.02 -0.02 -0.02 -0.02 -0.02 -0.02 0.02 0.03 0.06 0.09 0.09 0.11 -0.02 -0.17 -0.17 -0.34 -0.36 -0.27 -0.27 -0.24 -0.39 -0.39 -0.49 -0.55 -0.59
-0.24 -0.21 -0.21 -0.15 -0.13 -0.13 -0.12 -0.08 -0.04 -0.04 0.03 0.01 -0.02 -0.01 -0.01 -0.01 0.02 0.10 0.10 0.12 0.08 0.05 0.05 0.20 0.22 0.19 0.19 0.24 0.28 0.28 0.23 0.18 0.14 0.12 0.12 0.11 0.06 0.05 0.05 0.04 0.03 0.00 0.00 -0.05 -0.01 -0.01 0.02 0.04 0.03 0.03 0.03 0.08 0.12 0.15 0.15 0.13 0.09 -0.17 -0.17 -0.32 -0.33 -0.18 -0.18 -0.14 -0.36 -0.36 -0.66 -0.70 -0.68
-0.16 -0.16 -0.16 -0.11 -0.11 -0.11 -0.10 -0.06 -0.00 -0.00 -0.03 -0.04 -0.03 -0.01 -0.01 -0.00 0.12 0.11 0.11 0.05 -0.02 -0.04 -0.04 0.21 0.22 0.17 0.17 0.27 0.32 0.32 0.28 0.20 0.14 0.14 0.14 0.13 0.09 0.01 0.01 -0.00 -0.02 -0.03 -0.03 -0.06 -0.00 -0.00 0.03 0.07 0.09 0.09 0.12 0.17 0.17 0.15 0.15 0.15 0.13 -0.00 -0.00 -0.24 -0.27 -0.11 -0.11 -0.06 -0.28 -0.28 -0.88 -0.88 -0.73
-0.08 -0.08 -0.08 -0.07 -0.09 -0.09 -0.11 -0.10 -0.07 -0.07 -0.04 -0.03 -0.01 0.00 0.00 0.02 0.06 0.04 0.04 -0.01 -0.05 0.09 0.09 0.20 0.17 0.12 0.12 0.27 0.37 0.37 0.31 0.18 0.13 0.10 0.10 0.10 0.08 0.01 0.01 -0.02 -0.04 -0.05 -0.05 -0.05 0.00 0.00 0.06 0.10 0.16 0.16 0.21 0.28 0.16 0.13 0.13 0.19 0.12 0.00 0.00 -0.13 -0.10 -0.22 -0.22 -0.33 -0.55 -0.55 -0.79 -0.98 -0.63
-0.07 -0.04 -0.04 -0.05 -0.08 -0.08 -0.09 -0.09 -0.07 -0.07 -0.02 -0.01 0.00 0.01 0.01 0.02 0.07 0.03 0.03 -0.04 0.07 0.12 0.12 0.17 0.11 0.05 0.05 0.24 0.26 0.26 0.15 0.16 0.15 0.14 0.14 0.14 0.17 0.06 0.06 -0.01 -0.05 -0.06 -0.06 -0.05 0.00 0.00 0.09 0.13 0.23 0.23 0.30 0.31 0.15 0.15 0.15 0.17 0.10 0.01 0.01 -0.05 -0.23 -0.47 -0.47 -0.65 -0.76 -0.76 -0.89 -0.83 -0.47
-0.03 -0.02 -0.02 -0.05 -0.06 -0.06 -0.06 -0.08 -0.05 -0.05 -0.01 0.01 0.01 0.02 0.02 0.03 0.13 0.07 0.07 0.07 0.09 0.11 0.11 0.13 0.02 -0.08 -0.08 0.09 0.12 0.12 0.07 0.11 0.12 0.11 0.11 0.09 0.13 0.11 0.11 -0.03 -0.07 -0.09 -0.09 -0.08 0.04 0.04 0.19 0.23 0.28 0.28 0.32 0.31 0.25 0.32 0.32 0.25 0.14 -0.11 -0.11 -0.22 -0.30 -0.54 -0.54 -0.82 -0.89 -0.89 -0.91 -0.71 -0.49
0.00 -0.03 -0.03 -0.05 -0.06 -0.06 -0.05 -0.04 -0.02 -0.02 -0.01 0.01 0.01 0.00 0.00 0.04 0.18 0.14 0.14 0.12 0.08 0.08 0.08 0.07 -0.10 -0.20 -0.20 -0.01 0.05 0.05 0.02 0.04 0.09 0.11 0.11 0.06 0.07 0.06 0.06 -0.07 -0.09 -0.09 -0.09 -0.03 0.09 0.09 0.27 0.31 0.30 0.30 0.30 0.35 0.34 0.45 0.45 0.32 -0.04 -0.24 -0.24 -0.33 -0.37 -0.61 -0.61 -0.83 -0.96 -0.96 -0.93 -0.51 -0.24
-0.00 -0.05 -0.05 -0.08 -0.07 -0.07 -0.04 -0.02 -0.01 -0.01 -0.02 0.00 -0.00 0.00 0.00 0.04 0.14 0.09 0.09 0.05 0.03 0.03 0.03 0.03 -0.18 -0.23 -0.23 -0.04 0.02 0.02 0.03 0.04 0.11 0.08 0.08 0.01 0.02 -0.00 -0.00 -0.05 -0.09 -0.04 -0.04 -0.05 0.16 0.16 0.40 0.37 0.30 0.30 0.36 0.45 0.51 0.71 0.71 0.29 -0.27 -0.37 -0.37 -0.38 -0.40 -0.46 -0.46 -0.72 -0.84 -0.84 -0.83 -0.38 -0.14
-0.02 -0.08 -0.08 -0.10 -0.06 -0.06 -0.02 -0.00 -0.01 -0.01 -0.01 0.00 0.01 0.01 0.01 0.05 0.14 0.16 0.16 0.04 0.04 0.03 0.03 0.02 -0.21 -0.21 -0.21 -0.05 0.01 0.01 0.02 0.04 0.15 0.08 0.08 -0.01 -0.01 -0.02 -0.02 -0.02 -0.06 -0.06 -0.06 0.05 0.30 0.30 0.54 0.45 0.31 0.31 0.53 0.66 0.77 0.73 0.73 0.17 -0.40 -0.40 -0.40 -0.41 -0.41 -0.45 -0.45 -0.51 -0.60 -0.60 -0.41 -0.30 -0.15
-0.01 -0.07 -0.07 -0.05 -0.02 -0.02 0.00 0.01 -0.00 -0.00 -0.01 0.01 0.02 0.03 0.03 0.05 0.15 0.23 0.23 0.04 0.02 -0.01 -0.01 -0.02 -0.10 -0.19 -0.19 -0.03 0.01 0.01 0.01 0.03 0.09 0.09 0.09 -0.01 -0.00 -0.01 -0.01 -0.02 -0.06 0.01 0.01 0.21 0.37 0.37 0.49 0.49 0.37 0.37 0.96 0.94 0.79 0.45 0.45 -0.20 -0.34 -0.39 -0.39 -0.40 -0.44 -0.47 -0.47 -0.48 -0.44 -0.44 -0.26 -0.18 -0.07
-0.01 -0.03 -0.03 -0.01 0.00 0.00 0.01 0.02 0.01 0.01 0.01 0.02 0.02 0.01 0.01 0.05 0.17 0.29 0.29 0.12 0.02 -0.04 -0.04 -0.06 -0.18 -0.19 -0.19 -0.05 -0.03 -0.03 -0.01 0.04 0.12 0.12 0.12 -0.01 -0.00 -0.01 -0.01 -0.05 -0.07 0.09 0.09 0.18 0.38 0.38 0.62 0.62 0.44 0.44 1.09 0.86 0.39 0.01 0.01 -0.36 -0.42 -0.41 -0.41 -0.42 -0.45 -0.46 -0.46 -0.44 -0.42 -0.42 -0.20 -0.04 0.02
-0.00 -0.01 -0.01 0.01 0.02 0.02 0.02 0.02 0.01 0.01 0.02 0.02 0.02 0.04 0.04 0.07 0.16 0.33 0.33 0.28 0.04 -0.08 -0.08 -0.12 -0.28 -0.21 -0.21 -0.07 -0.01 -0.01 0.01 0.05 0.06 0.07 0.07 -0.02 -0.00 -0.00 -0.00 0.01 -0.03 0.07 0.07 0.31 0.82 0.82 0.88 0.64 0.53 0.53 0.97 0.33 -0.04 -0.35 -0.35 -0.40 -0.45 -0.46 -0.46 -0.44 -0.46 -0.47 -0.47 -0.39 -0.31 -0.31 -0.08 -0.02 0.06
-0.01 0.01 0.01 0.02 0.03 0.03 0.02 -0.01 -0.02 -0.02 0.02 0.03 0.02 0.04 0.04 0.06 0.10 0.34 0.34 0.34 0.12 -0.11 -0.11 -0.20 -0.31 -0.21 -0.21 -0.04 0.02 0.02 0.01 0.05 0.02 -0.03 -0.03 -0.02 0.00 0.02 0.02 -0.03 -0.10 -0.01 -0.01 0.59 0.79 0.79 0.79 0.56 0.63 0.63 0.81 -0.08 -0.24 -0.39 -0.39 -0.43 -0.46 -0.45 -0.45 -0.44 -0.46 -0.38 -0.38 -0.24 -0.09 -0.09 -0.01 0.04 0.07
-0.08 -0.01 -0.01 0.01 -0.01 -0.01 -0.04 -0.05 -0.05 -0.05 0.01 -0.03 -0.06 -0.08 -0.08 -0.15 -0.06 0.54 0.54 0.59 0.48 0.17 0.17 -0.10 -0.15 -0.18 -0.18 -0.02 -0.02 -0.02 0.02 -0.01 -0.08 -0.05 -0.05 0.03 0.03 -0.00 -0.00 0.05 0.25 0.33 0.33 0.33 0.66 0.66 0.71 0.72 0.54 0.54 0.06 -0.23 -0.33 -0.38 -0.38 -0.41 -0.42 -0.39 -0.39 -0.35 -0.29 -0.18 -0.18 -0.06 0.05 0.05 0.08 0.13 0.24
-0.10 -0.05 -0.05 -0.01 -0.01 -0.01 -0.03 -0.02 -0.07 -0.07 -0.03 -0.11 -0.17 -0.19 -0.19 -0.31 -0.04 0.41 0.41 0.48 0.53 0.32 0.32 0.10 0.07 -0.02 -0.02 -0.04 -0.05 -0.05 0.02 -0.05 -0.12 -0.07 -0.07 -0.01 -0.09 -0.04 -0.04 0.20 0.45 0.43 0.43 0.25 0.37 0.37 0.69 0.48 0.10 0.10 -0.21 -0.35 -0.40 -0.35 -0.35 -0.38 -0.39 -0.31 -0.31 -0.21 -0.10 -0.06 -0.06 0.02 0.06 0.06 0.07 0.08 0.18
-0.16 -0.12 -0.12 -0.07 -0.06 -0.06 -0.05 -0.05 -0.15 -0.15 -0.12 -0.25 -0.32 -0.29 -0.29 -0.26 0.02 0.01 0.01 0.01 0.18 0.14 0.14 0.05 -0.04 -0.06 -0.06 -0.07 -0.02 -0.02 -0.00 -0.12 -0.15 -0.12 -0.12 -0.09 0.10 0.28 0.28 0.47 0.51 0.34 0.34 0.17 0.34 0.34 0.53 0.11 -0.13 -0.13 -0.30 -0.42 -0.44 -0.36 -0.36 -0.31 -0.26 -0.17 -0.17 -0.09 -0.00 0.01 0.01 0.04 0.07 0.07 0.09 0.08 0.11
-0.23 -0.18 -0.18 -0.18 -0.17 -0.17 -0.19 -0.29 -0.26 -0.26 -0.23 -0.37 -0.42 -0.35 -0.35 -0.23 -0.03 -0.00 -0.00 -0.24 -0.12 0.00 0.00 -0.03 -0.01 -0.01 -0.01 -0.03 0.04 0.04 -0.02 -0.14 -0.15 -0.11 -0.11 0.19 0.31 0.52 0.52 0.45 0.44 0.25 0.25 0.13 0.32 0.32 0.50 -0.06 -0.25 -0.25 -0.41 -0.46 -0.46 -0.34 -0.34 -0.24 -0.12 -0.05 -0.05 -0.02 0.05 0.03 0.03 0.09 0.13 0.13 0.15 0.12 0.12
-0.32 -0.37 -0.37 -0.39 -0.44 -0.44 -0.53 -0.43 -0.26 -0.26 -0.38 -0.61 -0.57 -0.34 -0.34 -0.18 -0.08 -0.17 -0.17 -0.34 -0.18 -0.11 -0.11 -0.11 -0.04 -0.01 -0.01 -0.00 0.14 0.14 0.06 -0.04 -0.05 0.32 0.32 0.42 0.49 0.53 0.53 0.46 0.35 0.18 0.18 0.17 0.43 0.43 0.58 -0.21 -0.37 -0.37 -0.45 -0.43 -0.41 -0.27 -0.27 -0.13 -0.06 0.01 0.01 0.03 0.08 0.06 0.06 0.14 0.20 0.20 0.20 0.15 0.10
-0.23 -0.29 -0.29 -0.35 -0.44 -0.44 -0.47 -0.36 -0.35 -0.35 -0.52 -0.63 -0.36 -0.18 -0.18 -0.20 -0.23 -0.34 -0.34 -0.32 -0.17 -0.14 -0.14 -0.09 -0.01 0.02 0.02 0.06 0.26 0.26 0.16 0.11 0.34 0.44 0.44 0.46 0.44 0.40 0.40 0.37 0.33 0.13 0.13 0.10 0.43 0.43 0.26 -0.23 -0.42 -0.42 -0.40 -0.37 -0.28 -0.16 -0.16 -0.04 0.03 0.06 0.06 0.08 0.13 0.18 0.18 0.21 0.20 0.20 0.20 0.16 0.12
-0.24 -0.27 -0.27 -0.36 -0.45 -0.45 -0.49 -0.42 -0.39 -0.39 -0.36 -0.25 -0.17 -0.28 -0.28 -0.37 -0.45 -0.57 -0.57 -0.36 -0.25 -0.15 -0.15 -0.12 -0.08 -0.02 -0.02 0.05 0.28 0.28 0.21 0.14 0.22 0.22 0.22 0.18 0.09 0.11 0.11 0.21 0.06 -0.06 -0.06 0.00 0.18 0.18 -0.20 -0.37 -0.39 -0.39 -0.34 -0.23 -0.15 -0.07 -0.07 0.03 0.08 0.10 0.10 0.09 0.19 0.19 0.19 0.22 0.28 0.28 0.34 0.27 0.17
-0.24 -0.32 -0.32 -0.41 -0.51 -0.51 -0.60 -0.47 -0.37 -0.37 -0.17 -0.08 -0.20 -0.35 -0.35 -0.51 -0.66 -0.73 -0.73 -0.53 -0.40 -0.31 -0.31 -0.25 -0.16 -0.09 -0.09 0.04 0.13 0.13 0.05 0.09 0.06 -0.01 -0.01 -0.07 -0.12 -0.02 -0.02 0.01 -0.12 -0.09 -0.09 0.04 -0.09 -0.09 -0.31 -0.35 -0.36 -0.36 -0.30 -0.10 -0.04 -0.02 -0.02 0.06 0.11 0.12 0.12 0.12 0.12 0.15 0.15 0.16 0.10 0.10 0.14 0.17 0.14
-0.26 -0.35 -0.35 -0.49 -0.63 -0.63 -0.68 -0.52 -0.34 -0.34 -0.18 -0.17 -0.21 -0.33 -0.33 -0.52 -0.69 -0.80 -0.80 -0.63 -0.53 -0.38 -0.38 -0.20 -0.12 -0.04 -0.04 0.07 0.10 0.10 -0.00 -0.01 -0.05 -0.12 -0.12 -0.19 -0.16 -0.09 -0.09 -0.07 -0.10 -0.03 -0.03 -0.10 -0.35 -0.35 -0.43 -0.42 -0.28 -0.28 -0.15 -0.06 -0.03 0.00 0.00 0.08 0.12 0.13 0.13 0.13 0.14 0.12 0.12 0.15 0.06 0.06 0.04 0.13 0.12
-0.42 -0.58 -0.58 -0.70 -0.77 -0.77 -0.72 -0.49 -0.33 -0.33 -0.31 -0.30 -0.38 -0.42 -0.42 -0.52 -0.59 -0.51 -0.51 -0.33 -0.17 -0.01 -0.01 -0.02 -0.06 -0.01 -0.01 0.00 -0.00 -0.00 -0.12 -0.11 -0.15 -0.21 -0.21 -0.22 -0.17 -0.12 -0.12 -0.14 -0.18 -0.22 -0.22 -0.36 -0.46 -0.46 -0.43 -0.38 -0.06 -0.06 -0.01 -0.01 0.01 0.03 0.03 0.08 0.12 0.14 0.14 0.15 0.17 0.16 0.16 0.14 0.08 0.08 0.05 0.15 0.20
-0.47 -0.55 -0.55 -0.65 -0.70 -0.70 -0.40 -0.24 -0.33 -0.33 -0.37 -0.44 -0.52 -0.54 -0.54 -0.37 -0.24 -0.16 -0.16 -0.12 -0.10 -0.11 -0.11 -0.12 -0.08 -0.09 -0.09 -0.07 -0.14 -0.14 -0.19 -0.18 -0.24 -0.23 -0.23 -0.21 -0.15 -0.13 -0.13 -0.19 -0.24 -0.32 -0.32 -0.35 -0.37 -0.37 -0.30 0.08 0.15 0.15 0.17 0.16 0.13 0.07 0.07 0.11 0.15 0.18 0.18 0.18 0.26 0.26 0.26 0.22 0.19 0.19 0.14 0.19 0.19
-0.32 -0.39 -0.39 -0.50 -0.40 -0.40 -0.31 -0.38 -0.42 -0.42 -0.47 -0.59 -0.46 -0.30 -0.30 -0.20 -0.13 -0.09 -0.09 -0.09 -0.16 -0.15 -0.15 -0.14 -0.14 -0.11 -0.11 -0.14 -0.21 -0.21 -0.21 -0.17 -0.21 -0.21 -0.21 -0.19 -0.17 -0.19 -0.19 -0.26 -0.31 -0.35 -0.35 -0.24 -0.21 -0.21 -0.08 0.12 0.19 0.19 0.27 0.31 0.36 0.29 0.29 0.34 0.33 0.27 0.27 0.27 0.33 0.33 0.33 0.32 0.31 0.31 0.27 0.28 0.27
-0.51 -0.48 -0.48 -0.44 -0.36 -0.36 -0.45 -0.58 -0.46 -0.46 -0.30 -0.22 -0.20 -0.18 -0.18 -0.16 -0.15 -0.15 -0.15 -0.13 -0.12 -0.07 -0.07 -0.08 -0.08 -0.10 -0.10 -0.17 -0.20 -0.20 -0.19 -0.19 -0.24 -0.23 -0.23 -0.19 -0.18 -0.22 -0.22 -0.27 -0.28 -0.31 -0.31 -0.24 -0.12 -0.12 -0.12 0.00 0.06 0.06 0.12 0.17 0.27 0.40 0.40 0.37 0.26 0.31 0.31 0.23 0.32 0.42 0.42 0.46 0.41 0.41 0.40 0.49 0.62
-0.16 -0.14 -0.14 -0.14 -0.28 -0.28 -0.24 -0.21 -0.19 -0.19 -0.19 -0.19 -0.16 -0.14 -0.14 -0.12 -0.12 -0.12 -0.12 -0.10 -0.08 -0.05 -0.05 -0.05 -0.06 -0.10 -0.10 -0.13 -0.15 -0.15 -0.14 -0.14 -0.22 -0.19 -0.19 -0.14 -0.15 -0.23 -0.23 -0.27 -0.26 -0.26 -0.26 -0.23 -0.16 -0.16 -0.16 -0.03 0.02 0.02 0.04 0.07 0.11 0.17 0.17 0.19 0.16 0.14 0.14 0.04 0.07 0.08 0.08 0.10 0.18 0.18 0.29 0.38 0.46
-0.19 -0.18 -0.18 -0.17 -0.18 -0.18 -0.17 -0.13 -0.14 -0.14 -0.19 -0.18 -0.17 -0.16 -0.16 -0.20 -0.18 -0.17 -0.17 -0.15 -0.10 -0.09 -0.09 -0.08 -0.10 -0.14 -0.14 -0.14 -0.12 -0.12 -0.11 -0.10 -0.15 -0.14 -0.14 -0.11 -0.12 -0.22 -0.22 -0.26 -0.23 -0.24 -0.24 -0.24 -0.25 -0.25 -0.23 -0.06 -0.00 -0.00 0.02 0.04 0.09 0.09 0.09 0.07 0.02 0.01 0.01 -0.06 -0.08 -0.01 -0.01 0.11 0.22 0.22 0.38 0.44 0.16
-0.20 -0.19 -0.19 -0.19 -0.18 -0.18 -0.17 -0.21 -0.27 -0.27 -0.26 -0.26 -0.21 -0.19 -0.19 -0.17 -0.14 -0.12 -0.12 -0.11 -0.11 -0.13 -0.13 -0.12 -0.12 -0.14 -0.14 -0.12 -0.12 -0.12 -0.11 -0.09 -0.14 -0.10 -0.10 -0.09 -0.13 -0.23 -0.23 -0.29 -0.22 -0.23 -0.23 -0.29 -0.31 -0.31 -0.27 -0.04 0.05 0.05 0.12 0.14 0.15 0.14 0.14 0.10 -0.01 -0.25 -0.25 -0.27 -0.24 -0.08 -0.08 -0.02 0.10 0.10 0.23 0.34 0.00
-0.17 -0.17 -0.17 -0.20 -0.22 -0.22 -0.23 -0.22 -0.19 -0.19 -0.18 -0.19 -0.19 -0.16 -0.16 -0.14 -0.12 -0.11 -0.11 -0.11 -0.12 -0.14 -0.14 -0.13 -0.12 -0.11 -0.11 -0.09 -0.09 -0.09 -0.09 -0.09 -0.12 -0.09 -0.09 -0.09 -0.18 -0.31 -0.31 -0.35 -0.23 -0.29 -0.29 -0.32 -0.27 -0.27 -0.28 -0.17 0.18 0.18 0.27 0.26 0.24 0.27 0.27 0.03 -0.14 -0.38 -0.38 -0.36 -0.28 -0.18 -0.18 0.01 0.11 0.11 0.14 0.06 -0.00
-0.11 -0.12 -0.12 -0.16 -0.18 -0.18 -0.19 -0.18 -0.12 -0.12 -0.11 -0.12 -0.13 -0.11 -0.11 -0.09 -0.09 -0.11 -0.11 -0.15 -0.16 -0.19 -0.19 -0.15 -0.14 -0.10 -0.10 -0.07 -0.05 -0.05 -0.05 -0.06 -0.08 -0.08 -0.08 -0.09 -0.29 -0.47 -0.47 -0.36 -0.26 -0.31 -0.31 -0.37 -0.34 -0.34 -0.34 -0.16 0.10 0.10 0.28 0.24 0.13 -0.05 -0.05 -0.22 -0.33 -0.35 -0.35 -0.30 -0.24 -0.17 -0.17 -0.01 0.05 0.05 -0.01 -0.04 0.01
-0.11 -0.13 -0.13 -0.14 -0.15 -0.15 -0.17 -0.17 -0.13 -0.13 -0.12 -0.14 -0.16 -0.20 -0.20 -0.22 -0.22 -0.21 -0.21 -0.20 -0.18 -0.16 -0.16 -0.16 -0.09 -0.07 -0.07 -0.05 -0.04 -0.04 -0.04 -0.06 -0.06 -0.08 -0.08 -0.13 -0.52 -0.54 -0.54 -0.34 -0.30 -0.37 -0.37 -0.37 -0.29 -0.29 -0.23 -0.02 0.09 0.09 0.06 -0.13 -0.24 -0.31 -0.31 -0.39 -0.34 -0.32 -0.32 -0.31 -0.27 -0.21 -0.21 -0.09 -0.03 -0.03 -0.03 -0.03 -0.02
-0.13 -0.12 -0.12 -0.14 -0.15 -0.15 -0.13 -0.14 -0.16 -0.16 -0.20 -0.24 -0.28 -0.26 -0.26 -0.28 -0.29 -0.30 -0.30 -0.21 -0.16 -0.14 -0.14 -0.09 -0.08 -0.06 -0.06 -0.04 -0.04 -0.04 -0.06 -0.06 -0.07 -0.11 -0.11 -0.26 -0.51 -0.53 -0.53 -0.30 -0.33 -0.25 -0.25 -0.26 -0.24 -0.24 -0.17 -0.04 -0.04 -0.04 -0.15 -0.17 -0.25 -0.34 -0.34 -0.34 -0.29 -0.25 -0.25 -0.17 -0.11 -0.10 -0.10 -0.08 -0.05 -0.05 -0.04 -0.02 -0.02
-0.11 -0.12 -0.12 -0.13 -0.15 -0.15 -0.15 -0.14 -0.19 -0.19 -0.24 -0.28 -0.27 -0.25 -0.25 -0.24 -0.26 -0.26 -0.26 -0.19 -0.12 -0.13 -0.13 -0.08 -0.08 -0.07 -0.07 -0.06 -0.06 -0.06 -0.08 -0.08 -0.08 -0.19 -0.19 -0.43 -0.65 -0.63 -0.63 -0.19 -0.13 -0.14 -0.14 -0.17 -0.29 -0.29 -0.25 -0.07 -0.03 -0.03 -0.13 -0.16 -0.21 -0.28 -0.28 -0.11 -0.07 -0.03 -0.03 0.01 0.01 -0.01 -0.01 -0.01 -0.01 -0.01 -0.02 -0.00 -0.01
-0.08 -0.05 -0.05 -0.06 -0.07 -0.07 -0.08 -0.11 -0.09 -0.09 -0.12 -0.14 -0.15 -0.17 -0.17 -0.21 -0.28 -0.31 -0.31 -0.26 -0.19 -0.15 -0.15 -0.09 -0.06 -0.04 -0.04 -0.03 -0.06 -0.06 -0.10 -0.13 -0.16 -0.27 -0.27 -0.46 -0.56 -0.40 -0.40 -0.04 -0.06 -0.13 -0.13 -0.17 -0.25 -0.25 -0.23 -0.05 -0.01 -0.01 -0.07 -0.13 -0.17 -0.18 -0.18 0.01 0.06 0.05 0.05 0.06 0.06 0.05 0.05 0.04 0.02 0.02 0.01 0.01 -0.00
-0.09 -0.08 -0.08 -0.07 -0.06 -0.06 -0.07 -0.12 -0.15 -0.15 -0.17 -0.16 -0.17 -0.19 -0.19 -0.22 -0.24 -0.20 -0.20 -0.14 -0.09 -0.06 -0.06 -0.03 0.04 0.04 0.04 0.01 -0.06 -0.06 -0.12 -0.15 -0.20 -0.28 -0.28 -0.41 -0.37 -0.23 -0.23 -0.05 -0.15 -0.24 -0.24 -0.17 -0.16 -0.16 -0.13 -0.01 0.03 0.03 -0.02 -0.05 -0.07 -0.07 -0.07 -0.02 0.02 0.00 0.00 0.07 0.10 0.08 0.08 0.06 0.04 0.04 0.01 -0.02 -0.02
-0.17 -0.14 -0.14 -0.14 -0.12 -0.12 -0.10 -0.07 -0.07 -0.07 -0.06 -0.05 -0.06 -0.02 -0.02 0.03 0.07 0.12 0.12 0.13 0.10 0.08 0.08 0.06 0.02 -0.01 -0.01 -0.09 -0.17 -0.17 -0.18 -0.18 -0.19 -0.25 -0.25 -0.31 -0.25 -0.24 -0.24 -0.09 -0.06 -0.22 -0.22 -0.12 -0.04 -0.04 0.06 0.11 0.11 0.11 0.09 -0.00 -0.06 -0.17 -0.17 -0.11 -0.04 0.03 0.03 0.10 0.11 0.10 0.10 0.06 0.03 0.03 -0.02 -0.02 -0.01